QPF
0.00 0.00 0.00 0.00 0.00 0.00 0.00 0.00 0.00 0.00 0.00 0.00 0.00 0.00 0.00 0.00 0.00 0.00 0.00 0.00 0.00 0.00 0.00 0.00 0.00 0.00 0.00 0.00 0.00 0.00 0.00 0.00 0.00 0.00 0.01 0.00 0.00 0.04 0.08 0.12 0.09 0.03 0.05 0.04
0.00 0.00 0.00 0.00 0.00 0.00 0.00 0.00 0.00 0.00 0.00 0.00 0.00 0.00 0.00 0.00 0.00 0.00 0.00 0.00 0.00 0.00 0.00 0.00 0.00 0.00 0.00 0.00 0.00 0.00 0.00 0.02 0.01 0.05 0.06 0.03 0.05 0.34 0.24 0.19 0.06 0.04 0.02 0.04
0.00 0.00 0.00 0.00 0.00 0.00 0.00 0.00 0.00 0.00 0.00 0.00 0.00 0.00 0.00 0.00 0.00 0.00 0.00 0.00 0.00 0.00 0.00 0.00 0.00 0.00 0.00 0.00 0.00 0.00 0.00 0.02 0.02 0.02 0.05 0.02 0.16 0.20 0.07 0.13 0.13 0.02 0.02 0.00
0.00 0.00 0.00 0.00 0.00 0.00 0.00 0.00 0.00 0.00 0.00 0.00 0.00 0.00 0.00 0.00 0.00 0.00 0.00 0.00 0.00 0.00 0.00 0.00 0.00 0.00 0.00 0.00 0.00 0.00 0.00 0.00 0.00 0.00 0.00 0.03 0.04 0.01 0.01 0.01 0.01 0.00 0.00 0.01
0.00 0.00 0.00 0.00 0.00 0.00 0.00 0.00 0.00 0.00 0.00 0.00 0.00 0.00 0.00 0.00 0.00 0.00 0.00 0.00 0.00 0.00 0.00 0.00 0.00 0.00 0.00 0.00 0.00 0.00 0.00 0.00 0.00 0.00 0.00 0.07 0.09 0.06 0.01 0.00 0.00 0.00 0.00 0.00
0.00 0.00 0.00 0.00 0.00 0.00 0.00 0.00 0.00 0.00 0.00 0.00 0.00 0.00 0.00 0.00 0.00 0.00 0.00 0.00 0.00 0.00 0.00 0.00 0.00 0.00 0.00 0.00 0.00 0.00 0.00 0.00 0.00 0.00 0.00 0.07 0.03 0.00 0.00 0.00 0.00 0.00 0.00 0.00
0.00 0.00 0.00 0.00 0.00 0.00 0.00 0.00 0.00 0.00 0.00 0.00 0.00 0.00 0.00 0.00 0.00 0.00 0.00 0.00 0.00 0.00 0.00 0.00 0.00 0.00 0.00 0.00 0.00 0.00 0.00 0.00 0.00 0.01 0.01 0.05 0.03 0.00 0.00 0.00 0.00 0.00 0.00 0.00
0.00 0.00 0.00 0.00 0.00 0.00 0.00 0.00 0.00 0.00 0.00 0.00 0.00 0.00 0.00 0.00 0.00 0.00 0.00 0.00 0.00 0.00 0.00 0.00 0.00 0.00 0.00 0.00 0.00 0.00 0.00 0.00 0.00 0.00 0.01 0.02 0.00 0.00 0.00 0.00 0.00 0.00 0.00 0.00
0.00 0.00 0.00 0.00 0.00 0.00 0.00 0.00 0.00 0.00 0.00 0.00 0.00 0.00 0.00 0.00 0.00 0.00 0.00 0.00 0.00 0.00 0.00 0.00 0.00 0.00 0.00 0.00 0.00 0.00 0.00 0.00 0.00 0.00 0.00 0.00 0.00 0.00 0.00 0.00 0.00 0.00 0.00 0.00
0.00 0.00 0.00 0.00 0.00 0.00 0.00 0.00 0.00 0.00 0.00 0.00 0.00 0.00 0.00 0.00 0.00 0.00 0.00 0.00 0.00 0.00 0.00 0.00 0.00 0.00 0.00 0.00 0.00 0.00 0.00 0.00 0.00 0.00 0.00 0.00 0.00 0.00 0.00 0.00 0.00 0.00 0.00 0.00
0.00 0.00 0.00 0.00 0.00 0.00 0.00 0.00 0.00 0.00 0.00 0.00 0.00 0.00 0.00 0.00 0.00 0.00 0.00 0.00 0.00 0.00 0.00 0.00 0.00 0.00 0.01 0.00 0.00 0.00 0.00 0.00 0.00 0.00 0.00 0.00 0.00 0.00 0.00 0.00 0.00 0.00 0.00 0.00
0.00 0.00 0.00 0.00 0.00 0.00 0.00 0.00 0.00 0.00 0.00 0.00 0.00 0.00 0.00 0.00 0.00 0.00 0.00 0.00 0.00 0.00 0.00 0.00 0.00 0.01 0.03 0.06 0.03 0.00 0.00 0.00 0.00 0.00 0.00 0.00 0.00 0.00 0.00 0.00 0.00 0.00 0.00 0.00
0.00 0.00 0.00 0.00 0.00 0.00 0.00 0.00 0.00 0.00 0.00 0.00 0.00 0.00 0.00 0.00 0.00 0.00 0.00 0.00 0.00 0.00 0.00 0.00 0.00 0.00 0.00 0.02 0.07 0.07 0.03 0.01 0.00 0.00 0.00 0.00 0.00 0.00 0.00 0.00 0.00 0.00 0.00 0.00
0.00 0.00 0.00 0.00 0.00 0.00 0.00 0.00 0.00 0.00 0.00 0.00 0.00 0.00 0.00 0.00 0.00 0.00 0.00 0.00 0.00 0.00 0.00 0.00 0.00 0.01 0.02 0.01 0.09 0.16 0.12 0.02 0.00 0.00 0.00 0.00 0.00 0.00 0.00 0.00 0.00 0.00 0.00 0.00
0.00 0.00 0.00 0.00 0.00 0.00 0.00 0.00 0.00 0.00 0.00 0.00 0.00 0.00 0.00 0.00 0.00 0.00 0.00 0.00 0.00 0.00 0.00 0.00 0.00 0.02 0.00 0.00 0.00 0.04 0.05 0.01 0.00 0.00 0.00 0.00 0.00 0.00 0.00 0.00 0.00 0.00 0.00 0.00
0.00 0.00 0.00 0.00 0.00 0.00 0.00 0.00 0.00 0.00 0.00 0.00 0.00 0.00 0.00 0.00 0.00 0.00 0.00 0.00 0.00 0.00 0.00 0.00 0.07 0.03 0.00 0.00 0.00 0.00 0.02 0.00 0.00 0.00 0.00 0.00 0.00 0.00 0.00 0.00 0.00 0.00 0.00 0.00
0.00 0.00 0.00 0.00 0.00 0.00 0.00 0.00 0.00 0.00 0.00 0.00 0.00 0.00 0.00 0.00 0.00 0.00 0.00 0.00 0.00 0.00 0.00 0.00 0.03 0.01 0.00 0.00 0.00 0.00 0.00 0.00 0.00 0.00 0.00 0.00 0.00 0.00 0.00 0.00 0.00 0.00 0.00 0.00
0.00 0.00 0.00 0.00 0.00 0.00 0.00 0.00 0.00 0.00 0.00 0.00 0.00 0.00 0.00 0.00 0.00 0.00 0.00 0.00 0.00 0.00 0.00 0.01 0.00 0.00 0.00 0.00 0.00 0.00 0.00 0.00 0.00 0.00 0.00 0.00 0.00 0.00 0.00 0.00 0.00 0.00 0.00 0.00
0.00 0.00 0.00 0.00 0.00 0.00 0.00 0.00 0.00 0.00 0.00 0.00 0.00 0.00 0.00 0.00 0.00 0.00 0.00 0.00 0.00 0.01 0.03 0.04 0.01 0.00 0.00 0.00 0.00 0.00 0.00 0.00 0.00 0.00 0.00 0.01 0.00 0.00 0.00 0.00 0.00 0.00 0.00 0.00
0.00 0.00 0.00 0.00 0.00 0.00 0.00 0.00 0.00 0.00 0.00 0.00 0.00 0.00 0.00 0.00 0.00 0.00 0.00 0.00 0.03 0.10 0.23 0.11 0.02 0.00 0.00 0.00 0.00 0.02 0.01 0.00 0.00 0.00 0.00 0.00 0.00 0.00 0.00 0.00 0.00 0.00 0.00 0.00
0.00 0.00 0.00 0.00 0.00 0.00 0.00 0.00 0.00 0.00 0.00 0.00 0.00 0.00 0.00 0.00 0.00 0.00 0.03 0.06 0.17 0.33 0.26 0.10 0.03 0.00 0.00 0.00 0.00 0.00 0.00 0.00 0.00 0.00 0.00 0.00 0.00 0.00 0.00 0.00 0.00 0.00 0.00 0.00
0.00 0.00 0.00 0.00 0.00 0.00 0.00 0.00 0.00 0.00 0.00 0.00 0.00 0.00 0.00 0.00 0.02 0.02 0.09 0.24 0.22 0.15 0.12 0.08 0.04 0.03 0.01 0.00 0.00 0.00 0.00 0.00 0.00 0.00 0.00 0.00 0.00 0.00 0.00 0.00 0.00 0.00 0.00 0.00
0.00 0.00 0.00 0.00 0.00 0.00 0.00 0.00 0.00 0.00 0.00 0.00 0.00 0.00 0.00 0.01 0.03 0.01 0.06 0.06 0.01 0.01 0.03 0.03 0.02 0.00 0.00 0.00 0.00 0.00 0.00 0.00 0.00 0.00 0.00 0.00 0.00 0.00 0.00 0.00 0.00 0.00 0.00 0.00
0.00 0.00 0.00 0.00 0.00 0.00 0.00 0.00 0.00 0.00 0.00 0.00 0.00 0.00 0.00 0.00 0.00 0.00 0.00 0.01 0.00 0.00 0.01 0.00 0.00 0.00 0.00 0.00 0.00 0.00 0.00 0.00 0.00 0.00 0.00 0.00 0.00 0.00 0.00 0.00 0.00 0.00 0.00 0.00
0.00 0.00 0.00 0.00 0.00 0.00 0.00 0.00 0.00 0.00 0.00 0.00 0.00 0.01 0.00 0.00 0.00 0.00 0.00 0.00 0.00 0.00 0.00 0.00 0.00 0.00 0.00 0.00 0.00 0.00 0.00 0.00 0.00 0.00 0.00 0.00 0.00 0.00 0.00 0.00 0.00 0.00 0.00 0.00
0.00 0.00 0.00 0.00 0.00 0.00 0.00 0.00 0.00 0.00 0.00 0.00 0.00 0.01 0.00 0.00 0.00 0.00 0.00 0.00 0.01 0.00 0.00 0.00 0.00 0.00 0.00 0.00 0.00 0.00 0.00 0.00 0.00 0.00 0.00 0.00 0.00 0.00 0.00 0.00 0.00 0.00 0.00 0.00
MSLP
1007.66 1007.31 1007.07 1007.29 1007.48 1007.64 1007.68 1007.51 1007.26 1006.92 1007.11 1007.18 1007.51 1007.62 1007.96 1008.04 1008.22 1008.33 1008.46 1008.86 1009.12 1009.54 1010.03 1010.68 1011.30 1011.86 1012.29 1012.78 1013.26 1013.77 1014.50 1015.11 1015.53 1015.87 1015.91 1016.37 1016.28 1016.67 1016.95 1016.70 1016.41 1016.18 1016.24 1016.35
1007.64 1006.98 1007.23 1007.35 1007.54 1007.60 1007.60 1007.41 1007.02 1007.13 1007.27 1007.29 1007.60 1007.76 1008.04 1007.91 1007.79 1008.02 1008.31 1008.46 1008.68 1009.04 1009.86 1010.26 1010.96 1011.56 1012.11 1012.62 1013.21 1013.86 1014.30 1014.68 1015.03 1015.38 1015.72 1015.80 1016.40 1016.52 1016.49 1016.63 1016.19 1016.06 1015.80 1015.73
1007.02 1007.06 1007.31 1007.14 1007.21 1007.20 1007.28 1007.17 1007.01 1007.27 1007.38 1007.55 1007.59 1007.54 1007.72 1007.69 1007.92 1008.07 1008.24 1008.23 1008.32 1008.56 1008.95 1009.43 1010.19 1010.95 1011.68 1012.12 1012.68 1013.41 1013.86 1014.34 1014.69 1015.00 1015.37 1015.83 1016.08 1015.92 1016.06 1015.94 1015.87 1015.13 1015.37 1015.08
1007.06 1007.06 1006.93 1006.80 1006.79 1006.85 1006.60 1006.73 1007.07 1007.09 1007.13 1007.33 1007.77 1007.23 1007.20 1007.37 1007.38 1007.66 1007.72 1007.84 1007.93 1008.12 1008.61 1008.79 1009.15 1009.98 1010.83 1011.57 1012.29 1012.93 1013.42 1013.80 1014.17 1014.64 1014.78 1015.03 1015.23 1015.71 1015.59 1015.87 1015.66 1015.18 1014.96 1014.58
1006.64 1006.57 1006.34 1006.22 1006.29 1006.52 1006.43 1006.83 1006.98 1006.95 1007.11 1007.37 1007.76 1007.74 1006.57 1007.19 1006.89 1006.83 1007.28 1007.40 1007.60 1007.77 1008.06 1008.52 1009.01 1009.42 1010.07 1011.04 1011.96 1012.78 1013.19 1013.57 1014.12 1014.37 1014.52 1014.67 1014.77 1015.12 1015.52 1015.39 1015.13 1014.98 1014.75 1014.40
1006.36 1006.50 1006.21 1005.77 1006.01 1006.25 1006.44 1006.61 1006.87 1007.21 1007.04 1007.13 1007.68 1007.68 1006.17 1006.29 1006.06 1006.36 1007.06 1007.21 1007.48 1007.73 1008.14 1008.42 1008.98 1009.50 1010.17 1011.03 1011.84 1012.60 1013.16 1013.57 1013.97 1014.21 1014.26 1014.40 1014.73 1015.03 1015.31 1015.32 1015.11 1014.74 1014.70 1014.15
1006.13 1005.81 1005.74 1005.69 1005.82 1006.21 1006.09 1005.99 1005.97 1006.33 1006.56 1006.91 1007.83 1007.55 1005.85 1005.77 1006.07 1006.26 1006.43 1007.06 1007.50 1007.85 1008.21 1008.77 1009.28 1009.62 1010.32 1010.96 1011.54 1012.19 1012.78 1013.15 1013.49 1013.80 1014.13 1014.49 1014.66 1014.91 1015.01 1015.01 1014.81 1014.66 1014.41 1014.21
1005.63 1005.52 1005.28 1005.17 1005.04 1004.99 1005.59 1005.29 1005.32 1005.73 1006.29 1006.60 1007.73 1006.64 1005.54 1006.03 1006.16 1006.54 1006.79 1007.15 1007.52 1007.91 1008.59 1009.14 1009.38 1009.57 1010.16 1010.98 1011.55 1011.90 1012.48 1012.96 1013.30 1013.88 1014.40 1014.74 1014.94 1015.08 1015.03 1015.02 1014.76 1014.47 1014.32 1014.18
1005.36 1005.13 1004.83 1004.80 1004.70 1005.25 1005.61 1005.61 1005.80 1006.04 1007.21 1006.71 1006.47 1006.15 1005.45 1005.76 1006.24 1006.52 1006.87 1007.34 1007.38 1007.98 1008.91 1009.21 1009.44 1009.96 1010.49 1010.96 1011.39 1011.66 1012.26 1012.81 1013.40 1013.93 1014.41 1014.70 1014.86 1014.98 1014.98 1015.01 1014.80 1014.45 1014.29 1013.91
1005.21 1004.95 1004.64 1004.60 1004.86 1005.38 1005.11 1005.87 1005.95 1005.92 1006.07 1005.97 1005.75 1005.82 1005.12 1005.28 1005.64 1006.18 1006.62 1006.83 1007.47 1008.27 1009.52 1010.08 1010.17 1010.44 1010.95 1011.77 1012.09 1012.04 1012.54 1012.90 1013.35 1013.97 1014.46 1014.70 1014.86 1014.87 1014.93 1014.90 1014.64 1014.40 1014.24 1013.94
1005.04 1004.75 1004.80 1004.88 1004.49 1004.38 1005.45 1005.44 1005.91 1005.71 1006.01 1005.43 1005.26 1004.66 1004.92 1005.00 1005.13 1005.48 1006.10 1006.64 1007.55 1008.64 1009.58 1010.17 1010.58 1010.98 1011.31 1011.92 1012.42 1012.61 1012.77 1013.09 1013.62 1013.95 1014.31 1014.57 1014.50 1014.58 1014.72 1014.60 1014.46 1014.28 1014.03 1013.74
1004.75 1004.58 1004.27 1004.23 1004.46 1004.82 1004.67 1004.72 1004.99 1004.61 1005.76 1006.04 1005.61 1004.65 1004.71 1005.01 1005.32 1005.65 1006.07 1007.35 1007.98 1008.79 1009.85 1010.65 1010.95 1011.26 1011.66 1012.19 1012.54 1012.84 1013.01 1013.21 1013.21 1013.73 1013.99 1014.27 1014.48 1014.52 1014.40 1014.27 1014.05 1013.83 1013.58 1013.32
1004.48 1004.48 1004.00 1003.96 1004.50 1004.96 1004.41 1004.68 1004.75 1004.81 1004.90 1005.12 1004.87 1004.29 1004.83 1005.28 1005.49 1006.01 1006.64 1007.59 1008.48 1009.32 1010.22 1010.94 1011.06 1011.26 1011.35 1011.74 1012.04 1012.44 1012.91 1013.02 1013.31 1013.65 1013.64 1013.87 1014.08 1014.12 1013.94 1013.92 1013.83 1013.59 1013.36 1013.16
1003.52 1004.01 1003.70 1003.76 1003.94 1004.05 1004.11 1004.21 1004.43 1004.02 1004.04 1004.51 1004.27 1003.99 1004.57 1005.52 1005.88 1006.33 1006.97 1007.52 1008.30 1009.26 1010.20 1010.62 1010.74 1010.82 1010.79 1011.23 1011.47 1011.00 1011.73 1012.69 1013.33 1013.78 1013.69 1013.61 1013.55 1013.67 1013.73 1013.56 1013.38 1013.27 1013.11 1012.92
1003.39 1003.64 1004.34 1004.52 1004.57 1004.45 1004.06 1003.84 1004.14 1004.00 1004.07 1003.77 1003.86 1004.09 1004.31 1005.43 1005.83 1006.15 1006.76 1007.68 1008.49 1009.39 1010.15 1010.35 1010.34 1010.42 1010.84 1011.27 1011.58 1011.68 1010.96 1012.41 1013.02 1013.71 1013.68 1013.41 1013.34 1013.25 1013.23 1013.25 1013.44 1013.41 1013.18 1012.96
1003.86 1004.07 1004.51 1004.64 1004.69 1004.40 1004.07 1004.00 1004.01 1004.13 1004.14 1004.09 1004.07 1004.05 1004.62 1005.66 1005.85 1006.74 1007.19 1007.60 1008.16 1009.27 1009.73 1009.85 1009.90 1010.17 1010.69 1010.73 1011.39 1011.70 1011.56 1012.69 1013.09 1013.71 1013.76 1013.79 1013.64 1013.40 1013.18 1013.20 1013.01 1013.11 1013.05 1012.85
1003.64 1004.03 1004.44 1004.61 1004.94 1004.52 1004.24 1003.60 1003.76 1003.79 1003.89 1003.71 1003.57 1003.68 1004.50 1005.24 1005.85 1006.26 1006.88 1007.22 1007.73 1008.65 1009.03 1009.44 1009.46 1009.92 1010.39 1010.92 1011.45 1011.60 1011.97 1012.72 1013.33 1013.67 1013.69 1013.65 1013.75 1013.44 1012.93 1013.02 1012.94 1012.86 1012.91 1012.86
1003.60 1004.05 1004.72 1004.94 1004.97 1004.56 1003.82 1004.11 1003.82 1003.65 1003.67 1003.65 1003.75 1004.03 1004.71 1005.29 1005.75 1006.03 1006.55 1007.59 1008.38 1008.73 1009.17 1009.91 1010.25 1010.37 1010.68 1011.20 1011.30 1011.79 1012.35 1012.78 1013.28 1013.39 1013.46 1013.27 1012.92 1013.00 1012.86 1012.81 1012.94 1012.93 1012.91 1012.84
1003.68 1003.96 1004.88 1005.03 1004.78 1004.80 1004.16 1004.08 1003.79 1003.48 1003.15 1003.19 1003.51 1004.11 1005.02 1005.78 1006.25 1006.67 1007.38 1008.21 1009.33 1009.88 1010.34 1010.77 1010.99 1010.76 1010.96 1011.26 1011.85 1012.25 1012.60 1012.91 1013.04 1013.06 1013.05 1013.04 1012.90 1012.90 1013.02 1013.00 1013.01 1012.96 1012.88 1012.61
1004.22 1004.04 1003.97 1005.21 1004.43 1003.92 1003.12 1003.59 1003.85 1003.80 1003.28 1003.00 1003.85 1004.41 1005.36 1006.08 1006.54 1008.17 1008.92 1009.76 1010.96 1011.70 1012.70 1011.97 1011.21 1011.04 1011.25 1011.72 1012.03 1012.27 1012.64 1012.97 1013.09 1013.19 1013.24 1013.19 1013.28 1013.36 1013.30 1013.27 1013.12 1013.03 1012.86 1012.73
1004.82 1004.68 1004.60 1004.84 1004.40 1003.92 1003.74 1004.06 1004.31 1004.24 1003.96 1003.93 1004.53 1005.13 1005.84 1006.81 1008.05 1009.31 1010.24 1010.94 1011.94 1012.86 1013.08 1012.37 1012.24 1012.15 1012.08 1012.14 1012.52 1012.88 1013.30 1013.74 1013.90 1013.77 1013.83 1013.86 1013.95 1013.91 1013.82 1013.67 1013.42 1013.28 1012.96 1012.66
1005.43 1005.33 1005.41 1005.70 1005.13 1004.70 1004.41 1004.84 1004.51 1004.62 1004.36 1004.44 1005.16 1005.73 1006.53 1007.60 1008.67 1009.41 1010.22 1011.15 1011.66 1012.32 1013.99 1011.96 1012.85 1013.92 1013.45 1013.19 1013.43 1014.01 1014.50 1014.90 1014.76 1014.61 1014.57 1014.57 1014.67 1014.44 1014.08 1014.04 1013.73 1013.53 1013.04 1012.60
1006.48 1006.03 1005.72 1005.83 1004.95 1004.79 1004.96 1004.97 1004.90 1004.91 1004.86 1005.14 1005.76 1006.39 1006.72 1007.36 1008.04 1008.55 1009.01 1009.49 1009.98 1011.16 1013.26 1013.95 1013.80 1014.05 1014.34 1014.62 1014.91 1015.17 1015.70 1015.57 1015.41 1015.23 1015.08 1014.96 1014.83 1014.67 1014.62 1014.31 1013.89 1013.37 1013.16 1012.88
1006.58 1006.74 1006.26 1005.91 1004.97 1004.71 1004.75 1004.97 1005.06 1004.87 1004.82 1005.24 1005.86 1006.46 1007.19 1007.37 1008.09 1008.60 1009.53 1010.18 1010.74 1012.18 1013.58 1014.13 1014.32 1014.48 1015.12 1015.55 1015.83 1015.98 1016.02 1015.92 1015.64 1015.44 1015.36 1015.20 1015.11 1015.34 1014.85 1014.34 1014.17 1013.86 1013.51 1013.23
1006.51 1006.69 1006.11 1005.51 1004.93 1004.73 1004.49 1004.56 1004.63 1004.68 1004.85 1005.36 1006.16 1006.62 1007.35 1007.72 1008.29 1009.17 1009.97 1010.58 1011.45 1012.34 1013.28 1013.87 1014.46 1015.20 1015.97 1016.58 1016.62 1016.63 1016.46 1016.35 1016.20 1016.25 1015.94 1015.76 1015.51 1015.24 1014.49 1014.60 1014.72 1014.43 1014.21 1014.30
1005.92 1005.46 1005.17 1004.56 1004.62 1004.65 1004.35 1004.38 1004.49 1004.58 1004.80 1005.67 1005.85 1007.00 1007.65 1008.05 1008.81 1009.39 1010.42 1011.48 1012.41 1013.42 1014.14 1014.52 1015.42 1015.91 1016.47 1016.61 1016.71 1016.68 1016.70 1016.92 1016.75 1016.17 1016.13 1016.12 1015.76 1015.33 1015.20 1014.83 1014.47 1014.43 1014.40 1014.23
Thickness
5805 5800 5794 5805 5808 5806 5802 5798 5798 5816 5822 5817 5806 5811 5815 5825 5825 5821 5823 5820 5818 5813 5814 5809 5803 5798 5794 5790 5785 5781 5774 5769 5766 5761 5759 5756 5757 5759 5757 5757 5758 5758 5757 5757
5794 5790 5805 5811 5807 5804 5801 5798 5805 5813 5820 5818 5808 5807 5814 5822 5826 5826 5822 5821 5819 5818 5810 5809 5804 5800 5796 5792 5788 5780 5775 5772 5769 5765 5764 5766 5760 5758 5759 5755 5755 5757 5757 5757
5787 5797 5804 5806 5803 5801 5802 5800 5803 5801 5811 5814 5810 5805 5808 5821 5822 5825 5825 5827 5826 5821 5816 5815 5809 5804 5801 5796 5791 5784 5779 5775 5772 5770 5769 5764 5762 5760 5754 5755 5756 5756 5756 5759
5789 5801 5799 5800 5799 5806 5796 5814 5809 5805 5802 5789 5806 5784 5803 5813 5817 5818 5822 5823 5826 5825 5822 5821 5819 5815 5808 5804 5798 5792 5787 5782 5779 5775 5773 5768 5762 5754 5749 5748 5752 5757 5759 5762
5786 5790 5796 5794 5803 5811 5805 5812 5806 5806 5799 5796 5791 5785 5815 5803 5809 5819 5821 5824 5825 5827 5827 5824 5822 5822 5819 5812 5802 5793 5788 5784 5779 5776 5774 5770 5765 5762 5756 5756 5757 5760 5762 5763
5791 5805 5804 5810 5815 5815 5817 5809 5803 5797 5798 5778 5781 5783 5805 5808 5817 5821 5821 5823 5824 5825 5825 5827 5826 5823 5816 5812 5804 5794 5788 5783 5781 5778 5778 5774 5770 5765 5759 5756 5757 5761 5759 5761
5782 5793 5809 5815 5804 5809 5811 5805 5782 5774 5774 5773 5779 5779 5809 5824 5825 5824 5823 5821 5821 5824 5823 5820 5818 5817 5812 5808 5805 5798 5791 5785 5784 5780 5777 5771 5768 5762 5759 5759 5758 5756 5756 5756
5763 5761 5798 5815 5815 5811 5806 5814 5790 5755 5766 5782 5774 5781 5815 5823 5829 5826 5825 5821 5819 5819 5818 5815 5817 5818 5813 5809 5804 5801 5794 5787 5783 5777 5770 5767 5763 5759 5759 5757 5756 5756 5755 5754
5762 5770 5806 5814 5821 5817 5797 5797 5809 5780 5764 5772 5785 5800 5823 5824 5819 5819 5817 5813 5816 5816 5813 5815 5817 5814 5810 5806 5803 5802 5793 5788 5781 5773 5767 5763 5761 5759 5757 5755 5755 5754 5753 5754
5779 5770 5800 5810 5818 5813 5814 5809 5792 5787 5758 5754 5783 5778 5800 5813 5813 5815 5813 5816 5816 5814 5806 5806 5809 5810 5807 5800 5797 5798 5790 5783 5777 5772 5766 5761 5758 5758 5756 5754 5752 5751 5749 5749
5785 5785 5786 5798 5803 5806 5797 5798 5789 5796 5781 5774 5767 5794 5821 5819 5822 5820 5820 5820 5817 5811 5807 5806 5805 5803 5801 5797 5792 5790 5787 5779 5771 5769 5765 5761 5759 5757 5755 5754 5753 5750 5749 5749
5792 5787 5778 5795 5808 5813 5814 5807 5807 5795 5770 5772 5776 5795 5827 5823 5821 5823 5823 5815 5816 5811 5805 5799 5799 5796 5792 5787 5786 5784 5782 5780 5776 5768 5765 5761 5757 5755 5754 5753 5754 5754 5753 5753
5786 5778 5772 5786 5799 5803 5806 5803 5805 5803 5800 5776 5780 5798 5822 5820 5819 5820 5817 5815 5809 5803 5798 5793 5793 5790 5789 5786 5783 5779 5774 5774 5773 5766 5762 5760 5756 5755 5754 5753 5752 5752 5752 5751
5804 5786 5790 5784 5796 5807 5799 5803 5804 5813 5797 5787 5796 5810 5817 5808 5809 5814 5814 5816 5811 5803 5795 5793 5791 5791 5793 5786 5782 5780 5771 5767 5767 5760 5758 5756 5755 5754 5753 5753 5751 5750 5749 5748
5801 5782 5781 5787 5792 5797 5804 5808 5800 5800 5802 5799 5804 5800 5820 5807 5810 5817 5818 5813 5805 5796 5791 5792 5792 5789 5787 5781 5777 5771 5773 5765 5762 5752 5752 5754 5754 5754 5753 5751 5748 5745 5745 5744
5789 5773 5783 5782 5790 5796 5796 5802 5802 5800 5796 5796 5799 5801 5820 5811 5816 5807 5808 5807 5802 5791 5791 5792 5792 5788 5780 5782 5774 5768 5768 5759 5755 5749 5747 5745 5744 5746 5747 5746 5746 5742 5741 5740
5793 5783 5781 5777 5780 5790 5781 5800 5799 5802 5803 5804 5792 5813 5815 5810 5806 5808 5806 5807 5802 5793 5795 5790 5792 5785 5780 5776 5770 5765 5763 5755 5747 5743 5742 5741 5739 5738 5741 5739 5736 5733 5730 5729
5787 5786 5780 5770 5777 5751 5798 5802 5806 5803 5803 5809 5807 5810 5809 5807 5808 5812 5813 5802 5795 5793 5788 5782 5777 5776 5773 5770 5769 5763 5757 5751 5743 5740 5738 5740 5741 5736 5736 5734 5730 5727 5725 5722
5800 5790 5764 5764 5768 5773 5788 5794 5796 5794 5801 5814 5809 5808 5803 5800 5801 5800 5804 5799 5785 5779 5773 5768 5767 5768 5768 5766 5760 5754 5749 5744 5740 5737 5736 5734 5732 5730 5726 5722 5719 5717 5715 5714
5791 5794 5791 5757 5762 5757 5803 5803 5810 5806 5781 5816 5807 5802 5794 5793 5787 5776 5780 5776 5762 5757 5746 5754 5761 5761 5761 5757 5755 5749 5742 5737 5732 5731 5729 5728 5724 5719 5716 5712 5709 5707 5706 5702
5774 5775 5773 5764 5769 5781 5798 5799 5803 5768 5785 5801 5798 5792 5787 5779 5772 5763 5760 5753 5747 5739 5740 5743 5740 5743 5747 5747 5742 5734 5730 5723 5721 5720 5717 5714 5710 5705 5703 5701 5700 5697 5695 5694
5769 5770 5766 5752 5753 5755 5793 5786 5780 5788 5795 5795 5787 5782 5772 5766 5762 5761 5753 5745 5735 5721 5703 5736 5732 5721 5728 5731 5727 5717 5710 5707 5707 5705 5702 5699 5694 5693 5692 5687 5686 5683 5684 5683
5755 5764 5766 5764 5772 5780 5784 5782 5788 5788 5785 5784 5778 5773 5770 5765 5762 5764 5759 5753 5749 5735 5714 5709 5716 5715 5714 5710 5706 5700 5695 5695 5693 5691 5688 5685 5683 5681 5676 5675 5674 5676 5673 5671
5750 5751 5756 5758 5771 5774 5780 5781 5782 5786 5785 5782 5776 5770 5764 5758 5756 5755 5748 5742 5736 5723 5711 5706 5704 5705 5699 5696 5692 5689 5687 5685 5683 5681 5678 5675 5671 5663 5666 5667 5664 5661 5661 5659
5750 5747 5749 5754 5766 5771 5777 5778 5781 5782 5783 5775 5768 5765 5758 5755 5750 5741 5736 5733 5725 5718 5710 5706 5701 5694 5685 5679 5676 5675 5674 5672 5669 5665 5665 5663 5661 5658 5661 5654 5648 5645 5644 5639
5748 5751 5752 5757 5766 5765 5771 5775 5779 5776 5774 5767 5765 5755 5753 5750 5740 5737 5727 5719 5711 5701 5694 5691 5682 5677 5672 5670 5668 5666 5664 5658 5655 5658 5654 5649 5648 5647 5643 5641 5639 5634 5629 5627